Location: Agua Amarilla
(10.0342°N, 66.8490°W)
Time: 20:59:26
(UTC+00:00)

CZ-4C R/B - Pass Details

Date: 26 June 2022
Orbit: 395 x 462 km, 97.7° (Epoch: 14 August)

Event Time Altitude Azimuth Distance (km) Brightness Sun altitude
Rises 23:38:44 0° 7° (N) 2,413 6.9 -11.3°
Reaches altitude 10° 23:40:44 10° 4° (N) 1,556 5.9 -11.8°
Maximum altitude 23:44:03 65° 282° (WNW) 495 3.3 -12.5°
Drops below altitude 10° 23:47:26 10° 199° (SSW) 1,591 5.6 -13.2°
Sets 23:49:30 0° 196° (SSW) 2,473 6.5 -13.7°
